Weather History for New Philadelphia, OH

Change the Weather History Date:

Monday, December 10, 2012

  Actual Average Record
Temperature  
Mean Temperature 48 °F 34 °F  
Max Temperature 59 °F 42 °F 62 °F (1987)
Min Temperature 36 °F 26 °F 0 °F (1977)
Degree Days  
Heating Degree Days 17 31  
Month to date heating degree days 189 294  
Since 1 July heating degree days 1462 1452  
Cooling Degree Days 0 0  
Month to date cooling degree days 0 0  
Year to date cooling degree days 981 697  
Moisture  
Dew Point 43 °F    
Average Humidity 86    
Maximum Humidity 92    
Minimum Humidity 79    
Precipitation  
Precipitation 0.62 in 0.09 in 0.62 in (2012)
Month to date precipitation 2.28 0.96  
Year to date precipitation 30.60 37.19  
Sea Level Pressure  
Sea Level Pressure 29.69 in    
Wind  
Wind Speed 6 mph (West)    
Max Wind Speed 22 mph    
Max Gust Speed 62 mph    
Visibility 6 miles    
Events Rain    
T = Trace of Precipitation, MM = Missing Value Source: NWS Daily Summary

Daily Weather History Graph

Daily Weather History Graph

Search for Another Location

Airport:

Trip Planner

Search our weather history database for the weather conditions in past years. The results will help you decide how hot, cold, wet, or windy it might be!

Date:

Astronomy

Dec. 10, 2012 Rise Set
Actual Time 7:38 AM EST 4:59 PM EST
Civil Twilight 7:07 AM EST 5:29 PM EST
Nautical Twilight 6:33 AM EST 6:03 PM EST
Astronomical Twilight 6:00 AM EST 6:37 PM EST
Moon 4:19 AM EST (12/10) 2:47 PM EST (12/10)
Length of Visible Light 10h 21m
Length of Day
9h 20m
Waning Crescent, 10% of the Moon is Illuminated
Dec 10
Waning Crescent
Dec 13
New
Dec 20
First Quarter
Dec 28
Full
Jan 4
Last Quarter

Hourly Weather History & Observations

Time (EST) Temp. Windchill Dew Point Humidity Pressure Visibility Wind Dir Wind Speed Gust Speed Precip Events Conditions
12:35 AM 59.0 °F - 55.4 °F 88% 29.69 in 2.5 mi SSW 10.4 mph 20.7 mph 0.11 in Rain Heavy Rain
12:43 AM 59.0 °F - 55.4 °F 88% 29.68 in 3.0 mi South 8.1 mph 16.1 mph 0.14 in Rain Rain
12:53 AM 59.0 °F - 55.0 °F 87% 29.68 in 4.0 mi South 8.1 mph - 0.16 in Rain Rain
1:41 AM 57.2 °F - 55.4 °F 94% 29.68 in 2.0 mi WSW 10.4 mph 17.3 mph 0.18 in Rain Heavy Rain
1:53 AM 59.0 °F - 54.0 °F 83% 29.68 in 7.0 mi WSW 9.2 mph 20.7 mph 0.19 in Rain Light Rain
2:02 AM 57.2 °F - 53.6 °F 88% 29.68 in 10.0 mi WSW 6.9 mph - 0.01 in Rain Light Rain
2:53 AM 57.0 °F - 53.1 °F 87% 29.68 in 10.0 mi Variable 4.6 mph - 0.05 in Rain Light Rain
3:49 AM 57.2 °F - 53.6 °F 88% 29.66 in 10.0 mi South 8.1 mph - 0.02 in   Overcast
3:53 AM 57.0 °F - 53.1 °F 87% 29.66 in 10.0 mi SSW 9.2 mph - 0.02 in   Overcast
4:53 AM 55.9 °F - 52.0 °F 87% 29.65 in 10.0 mi Variable 5.8 mph - N/A   Overcast
5:37 AM 55.4 °F - 51.8 °F 88% 29.65 in 10.0 mi SW 5.8 mph - N/A   Overcast
5:53 AM 55.9 °F - 52.0 °F 87% 29.65 in 10.0 mi SSW 5.8 mph - N/A   Overcast
6:50 AM 55.4 °F - 51.8 °F 88% 29.63 in 10.0 mi SSW 5.8 mph - 0.00 in   Overcast
6:53 AM 55.9 °F - 52.0 °F 87% 29.64 in 10.0 mi SW 4.6 mph - 0.00 in   Overcast
7:53 AM 55.9 °F - 52.0 °F 87% 29.64 in 10.0 mi SW 8.1 mph - N/A   Overcast
8:50 AM 51.8 °F - 50.0 °F 94% 29.64 in 1.8 mi NW 5.8 mph - 0.01 in Rain Light Rain
8:53 AM 52.0 °F - 50.0 °F 93% 29.65 in 2.0 mi NW 8.1 mph - 0.01 in Rain Light Rain
9:02 AM 51.8 °F - 48.2 °F 88% 29.65 in 5.0 mi NW 6.9 mph - 0.00 in Rain Light Rain
9:53 AM 50.0 °F - 48.0 °F 93% 29.65 in 3.0 mi WNW 4.6 mph - 0.00 in Rain Light Rain
10:08 AM 50.0 °F - 46.4 °F 87% 29.65 in 10.0 mi West 5.8 mph - 0.01 in   Overcast
10:41 AM 50.0 °F - 46.4 °F 87% 29.64 in 6.0 mi NW 4.6 mph - 0.01 in   Overcast
10:53 AM 50.0 °F - 46.9 °F 89% 29.64 in 4.0 mi NNW 4.6 mph - 0.01 in   Overcast
11:06 AM 50.0 °F - 46.4 °F 87% 29.64 in 2.5 mi WNW 4.6 mph - 0.02 in Rain Rain
11:09 AM 50.0 °F - 46.4 °F 87% 29.63 in 1.8 mi WNW 5.8 mph - 0.03 in Rain Heavy Rain
11:16 AM 50.0 °F - 46.4 °F 87% 29.63 in 2.0 mi West 3.5 mph - 0.05 in Rain Rain
11:22 AM 50.0 °F - 46.4 °F 87% 29.63 in 3.0 mi WNW 4.6 mph - 0.05 in Rain Light Rain
11:53 AM 50.0 °F - 46.9 °F 89% 29.60 in 8.0 mi North - - 0.05 in   Overcast
12:03 PM 50.0 °F - 46.4 °F 87% 29.62 in 9.0 mi Calm Calm - N/A   Overcast
12:45 PM 46.4 °F 42.9 °F 42.8 °F 87% 29.63 in 3.0 mi WNW 6.9 mph 17.3 mph 0.01 in   Overcast
12:53 PM 45.0 °F 39.3 °F 43.0 °F 93% 29.64 in 3.0 mi WNW 11.5 mph 17.3 mph 0.01 in   Overcast
1:49 PM 42.8 °F 36.6 °F 39.2 °F 87% 29.64 in 5.0 mi NNW 11.5 mph - 0.03 in Rain Light Rain
1:53 PM 43.0 °F 38.2 °F 39.0 °F 86% 29.65 in 6.0 mi NW 8.1 mph - 0.03 in Rain Light Rain
2:53 PM 41.0 °F 35.8 °F 36.0 °F 82% 29.66 in 10.0 mi WNW 8.1 mph - 0.01 in   Overcast
3:14 PM 39.2 °F 34.2 °F 35.6 °F 87% 29.65 in 6.0 mi NW 6.9 mph - 0.01 in Rain Light Rain
3:35 PM 39.2 °F 33.6 °F 35.6 °F 87% 29.67 in 6.0 mi NW 8.1 mph - 0.01 in Rain Light Rain
3:53 PM 39.9 °F 34.5 °F 36.0 °F 86% 29.68 in 7.0 mi NW 8.1 mph - 0.01 in   Overcast
4:25 PM 41.0 °F 38.0 °F 35.6 °F 81% 29.68 in 8.0 mi NW 4.6 mph - N/A   Overcast
4:53 PM 41.0 °F 36.4 °F 35.1 °F 79% 29.71 in 10.0 mi NW 6.9 mph - N/A   Overcast
5:53 PM 39.9 °F 35.8 °F 34.0 °F 79% 29.74 in 9.0 mi WNW 5.8 mph - 0.01 in Rain Light Rain
6:21 PM 39.2 °F 37.0 °F 33.8 °F 81% 29.73 in 7.0 mi WNW 3.5 mph - 0.01 in Rain Light Rain
6:30 PM 39.2 °F 37.0 °F 33.8 °F 81% 29.75 in 6.0 mi West 3.5 mph - 0.02 in Rain Light Rain
6:53 PM 37.9 °F 34.4 °F 34.0 °F 86% 29.77 in 7.0 mi West 4.6 mph - 0.02 in Rain Light Rain
7:03 PM 37.4 °F 33.8 °F 33.8 °F 87% 29.76 in 7.0 mi WSW 4.6 mph - 0.01 in Rain Light Rain
7:15 PM 37.4 °F 33.8 °F 33.8 °F 87% 29.76 in 6.0 mi West 4.6 mph - 0.01 in Rain Light Rain
7:28 PM 37.4 °F 32.8 °F 33.8 °F 87% 29.74 in 5.0 mi WNW 5.8 mph - 0.02 in Rain Light Rain
7:35 PM 37.4 °F 33.8 °F 33.8 °F 87% 29.75 in 5.0 mi West 4.6 mph - 0.03 in Rain Light Rain
7:53 PM 36.0 °F - 33.1 °F 89% 29.77 in 8.0 mi Calm Calm - 0.03 in   Overcast
8:53 PM 36.0 °F - 34.0 °F 93% 29.79 in 7.0 mi Calm Calm - 0.00 in   Overcast
9:29 PM 37.4 °F 34.9 °F 33.8 °F 87% 29.79 in 8.0 mi WSW 3.5 mph - N/A   Overcast
9:53 PM 37.0 °F 33.3 °F 34.0 °F 89% 29.83 in 8.0 mi WSW 4.6 mph - N/A   Overcast
10:03 PM 37.4 °F 32.8 °F 33.8 °F 87% 29.81 in 9.0 mi WSW 5.8 mph - N/A   Overcast
10:38 PM 37.4 °F 32.8 °F 33.8 °F 87% 29.83 in 7.0 mi WSW 5.8 mph - 0.00 in   Overcast
10:45 PM 37.4 °F 33.8 °F 33.8 °F 87% 29.83 in 7.0 mi WSW 4.6 mph - 0.00 in   Overcast
10:53 PM 37.0 °F 32.4 °F 34.0 °F 89% 29.85 in 7.0 mi WSW 5.8 mph - 0.00 in   Overcast
11:53 PM 37.0 °F 31.0 °F 33.1 °F 86% 29.86 in 6.0 mi West 8.1 mph - 0.01 in   Overcast